User: anonymous   Login
Location: Caltech
(34.1382°N, 118.1253°W)
Time: 21:24:06
(UTC-07:00)
Language:

FENGYUN 3A - Orbit

View from above orbital plane
View from above orbital plane
View from above satellite
View from above satellite

Ground track
Ground track

The orbit data is extracted from the following two-line orbital elements,

1 32958U 08026A   14298.74403192  .00000164  00000-0  97930-4 0  4838
2 32958 098.5391 353.0786 0009253 194.4276 165.6637 14.19482617332362
Epoch (UTC): 25 October 2014 17:51:24
Eccentricity: 0.0009253
inclination: 98.5391°
perigee height: 820 km
apogee height: 834 km
right ascension of ascending node: 353.0786°
argument of perigee: 194.4276°
revolutions per day: 14.19482617
mean anomaly at epoch: 165.6637°
orbit number at epoch: 33236

The dashed part of the orbit path shows where the satellite is in the earth's shadow,  

DLR